Погода в Балашове

Погода в Балашове : погода сейчас, прогноз погоды и архив. Всё, что Вы хотите узнать о погоде в Балашове!

Хотите узнать прогноз погоды в Балашове? Тогда Вам сюда: Погода в Балашове

Поиск расширенной информации на нашем сайте:

Другие новости

Новости СМИ2

Главная страница сайта

Новости сайта

03.07.2017

Напоминаем, что на нашем специализированном сайте Метеоцентр.Азия вы можете получить высокодетализированные автоматические прогнозы погоды по пунктам России, СНГ и мира в авиационном формате (включающие направление и скорость ветра, видимость, явления погоды, количество и форму облачности, нижнюю и верхнюю границу облачности).

Рекомендуем: Остекление балконов в казани сравнить пульс цен балконы остекление цены.

Погода в Балашове - сегодня

Время (UTC), дата Ветер
(°,м/с) 
Видим.   Явления Облачность Т
(°С)
Тd
(°С)
f(%) Тe
(°С)
Pmin
(гПа)
dP
(гПа)
Po
(мм)
O2
(г/м3)
Тmin Tmax R s Состояние
почвы
09 16.06.18 040 (СВ) 20000 м    6/1 1000 м верхняя 
[Cu hum|Ci fib]
+21.4 +7.8 42 +21  1018  0.1  750  279           
12 16.06.18 030 (СВ) 20000 м    1/0 верхняя 
[Ci fib]
+22.6 +6.9 36 +23  1017.5  -0.4  749  278           
18 16.06.18 030 (СВ) 20000 м    1/0 верхняя 
[Ci fib]
+14.1 +6.8 61 +15  1018.4  0.2  750  286           
21 16.06.18 040 (СВ) 20000 м    3/0 верхняя 
[Ci fib]
+10.9 +5.8 71 +12  1018.9  0.3  750  290           
00 17.06.18 030 (СВ) 20000 м    4/0 верхняя 
[Ci fib]
+8.3 +6.3 87 +9  1019.3  0.2  750  292           
06 17.06.18 030 (СВ) 20000 м    ясно 
+21 +8 43 +21  1018.5  0.1  750  279           
09 17.06.18 030 (СВ) 20000 м    ясно 
+24.5 +6.7 32 +25  1017.4  -0.9  749  276           
12 17.06.18 040 (СВ) 20000 м    ясно 
+25.4 +5.4 28 +25  1015.9  -1.4  748  275           
15 17.06.18 020 (С) 20000 м    ясно 
+24.6 +5.6 29 +25  1015.2  -0.7  748  276    +25.7       
18 17.06.18 тихо ()   20000 м    ясно 
+16.1 +7.5 57 +16  1016  0.2  748  283           
21 17.06.18 010 (С) 20000 м    ясно 
+13 +8.5 74 +14  1016.1  0.1  748  286           
00 18.06.18 020 (С) 20000 м    ясно 
+10 +8.8 92 +11  1016.1  -0.2  748  289           
06 18.06.18 360 (С) 20000 м    10/0 верхняя 
[Ci fib]
+24.6 +12.3 46 +29  1014.5  -0.6  747  274           
09 18.06.18 020 (С) 2{11}  20000 м    3/3 1000 м 
[Cu med, cong]
+27.8 +8.5 30 +28  1013.6  -0.8  747  272           
12 18.06.18 360 (С) 20000 м    1/1 1000 м 
[Cu med, cong]
+29 +6.9 25 +29  1012.6  -0.8  746  271           
18 18.06.18 тихо ()   20000 м    ясно 
+18.9 +9.3 54 +19  1013  0.1  746  279           
21 18.06.18 330 (СЗ) 20000 м    ясно 
+16 +11.2 73 +20  1013.5  0.3  746  282           
00 19.06.18 340 (С) 20000 м    ясно 
+13.5 +10.9 84 +17  1013.9  0.3  746  285           
06 19.06.18 330 (СЗ) 20000 м    ясно 
+26.5 +11.2 38 +29  1013.6  747  272           
09 19.06.18 350 (С) 20000 м    8/6 1000 м средняя 
[Cu med, cong|Ac trans]
+28.4 +13 39 +34  1012.9  -0.5  746  270           
18 19.06.18 220 (ЮЗ) 20000 м    10/0 средняя, верхняя 
[Ac trans|Cs]
+19.3 +14.3 73 +29  1012.7  0.6  746  278           
21 19.06.18 180 (Ю) 20000 м    3/0 средняя, верхняя 
[Ac trans|Ci fib]
+16.1 +13.8 86 +24  1012.7  -0.2  746  281           
00 20.06.18 210 (ЮЗ) 20000 м    3/0 средняя 
[Ac trans]
+14.6 +12.8 89 +20  1012.3  -0.5  745  282           
03 20.06.18 210 (ЮЗ) 20000 м    8/0 средняя, верхняя 
[Ac trans|Ci fib]
+17.5 +14.5 83 +26  1011.9  -0.4  745  279  +14.5        сухая 
06 20.06.18 250 (З) 20000 м    6/0 верхняя 
[Ci fib]
+25.9 +15.2 52 +35  1010.7  -0.7  745  271           
Время (UTC), дата Ветер
(°,м/с) 
Видим.   Явления Облачность Т
(°С)
Тd
(°С)
f(%) Тe
(°С)
Pmin
(гПа)
dP
(гПа)
Po
(мм)
O2
(г/м3)
Тmin Tmax R s Состояние
почвы

Для получения пояснительной информации подведите курсор к названию столбца.

ПОГОДА в Балашове - архив

Всё, что Вы хотите узнать о погоде в Балашове - удобно и подробно!

Выберите нужную дату (начиная с 1 января 2015* года) и нажмите кнопку "Найти".
Будут отображены архивные сводки погоды по пункту Балашов, начиная с указанной даты.


Отображать данные в формате CSV (для использования в таблицах Excel)


Внимание! Наш архив погоды предназначен исключительно для личного некоммерческого использования в познавательных целях. Если Вам необходимы официальные справки о состоянии погоды (для производственных, юридических, коммерческих и т.п. целей), обращайтесь в органы Росгидромета.

*Примечание: данная дата относится к архиву по метеостанциям СССР (Россия, СНГ, Балтия).
Архив по метеостанциям Зарубежной Европы и Азии (кроме Китая) хранится 10 дней, по другим регионам земного шара (Китай, Африка, Америка, Австралия, Океания) - 1 день.

Балашов - район местоположения метеостанции


Название, широта, долгота, высота метеостанции:
Балашов 51.6°ш. 43.2°д. 159 м над ур. моря [Российская Федерация]

Дополнительная информация

В oтличие oт бoльшинства пoгoдных сайтoв мы публикуем пoдрoбную метеoинфoрмацию в детальнoм прoфессиoнальнoм фoрмате.

Характеристики температуры и влажнoсти вoздуха измеряются на высoте 2 м в тени вдали oт зданий и деревьев.
Скoрoсть ветра измеряется на высoте 10 м (на урoвне рoста челoвека скoрoсть ветра ниже в 1.5-2 раза). Если метеoстанция нахoдится в гoрoде или в лесу, тo скoрoсть ветра занижена на 2-4 м/с пo сравнению с oткрытым местoм. Скoрoсть ветра над акватoриями крупных рек и oзёр, а также на вершинах хoлмoв на 2-5 м/с выше, чем в oбычных услoвиях.
Атмoсфернoе давление в разных тoчках местнoсти мoжет значительнo oтличаться oт давления на метеoстанции, в зависимoсти oт услoвий рельефа (при пoдъёме на 10 м давление пoнижается примернo на 1 мм рт.ст.).